Regional Weather Roundup
Issued by NWS

Home | Current Version | Previous Version | Text Only | Print | Product List | Glossary On
Versions: 1 2 3 4 5 6 7 8 9 10 11 12 13 14 15 16 17 18 19 20 21 22 23 24 25 26 27 28 29 30 31 32 33 34 35 36 37 38 39 40 41 42 43 44 45 46 47 48 49 50
000
ASUS46 KSEW 300910
RWRWA

WASHINGTON REGIONAL WEATHER ROUNDUP
NATIONAL WEATHER SERVICE SEATTLE WA
200 AM PDT TUE SEP 30 2014

NOTE:"FAIR" INDICATES FEW OR NO CLOUDS BELOW 12,000 FEET WITH NO
SIGNIFICANT WEATHER AND/OR OBSTRUCTIONS TO VISIBILITY.

WAZ505-507>509-301000-
SEATTLE, TACOMA, EVERETT, AND VICINITY

CITY           SKY/WX    TMP DP  RH WIND       PRES   REMARKS
EVERETT        CLOUDY    54  51  90 S8        30.00R
BOEING FIELD   PTCLDY    57  52  83 SE8       29.99S
RENTON         CLOUDY    56  55  97 E6        30.00R
SEATAC AIRPORT MOCLDY    55  52  89 SE7       30.01S
JBLM-MCCHORD   CLEAR     52  51  99 S8        30.01R
PUYALLUP       NOT AVBL
JBLM-FT LEWIS  CLEAR     53  52  95 S7        30.01R
TACOMA NARROWS CLEAR     54  50  86 CALM      30.00S
$$

WAZ001-503-506-510-514-515-301000-
NORTH INTERIOR

CITY           SKY/WX    TMP DP  RH WIND       PRES   REMARKS
BELLINGHAM     CLOUDY    57  51  80 S5        29.95R
FRIDAY HARBOR  MOCLDY    54  50  86 SW5       29.97R
EASTSOUND      PTCLDY    54  50  87 S5        29.94R
PORT ANGELES   CLEAR     56  45  66 NW5       29.99R
NAS WHIDBEY    MOCLDY    56  50  80 W9        29.98R
BURLINGTON     PTCLDY    55  52  88 SW5       29.98R
$$

WAZ020-022-039-040-504-511-512-301000-
SOUTHWEST INTERIOR

CITY           SKY/WX    TMP DP  RH WIND       PRES   REMARKS
SHELTON        CLEAR     53  51  93 SW14      29.98R
OLYMPIA        PTCLDY    54  51  90 S10       30.02R
CHEHALIS       PTSUNNY   54  54 100 SW5       30.04R
KELSO          CLOUDY    55  52  88 CALM      30.09S
VANCOUVER      CLOUDY    55  52  89 CALM      30.06S
SCAPPOOSE, OR  CLOUDY    52  52 100 CALM      30.06R
PORTLAND, OR   MOCLDY    56  53  90 SE3       30.07R
$$

WAZ021-516-517-301000-
WASHINGTON COAST

CITY           SKY/WX    TMP DP  RH WIND       PRES   REMARKS
FORKS          FOG       48  48 100 CALM      30.02R VSB 3/4
HOQUIAM        LGT RAIN  56  55  97 W6        30.04R FOG
ASTORIA, OR    PTCLDY    55  53  93 W6        30.06R
$$

WAZ019-023-024-040-518-519-301000-
CASCADE MOUNTAINS AND COLUMBIA GORGE

CITY           SKY/WX    TMP DP  RH WIND       PRES   REMARKS
STAMPEDE PASS  NOT AVBL
TROUTDALE, OR  CLOUDY    56  52  86 CALM      30.05S
THE DALLES, OR CLEAR     60  45  57 NW8       29.97R
$$

WAZ026-027-041>044-520-521-301000-
EAST SLOPES

CITY           SKY/WX    TMP DP  RH WIND       PRES   REMARKS
OMAK           PTCLDY    57  40  52 NW7       29.76R
WENATCHEE      CLEAR     59  37  44 NW14      29.83R
ELLENSBURG     CLEAR     54  40  59 NW21G31   29.89R
YAKIMA         CLEAR     57  37  47 NW7       29.89R
$$

WAZ028-034-035-301000-
COLUMBIA BASIN

CITY           SKY/WX    TMP DP  RH WIND       PRES   REMARKS
EPHRATA        MOCLDY    62  36  37 NW24G33   29.77S
MOSES LAKE     CLOUDY    58  45  62 W10       29.82R
PASCO          MOCLDY    60  49  66 SW12      29.88R
HERMISTON, OR  PTCLDY    59  43  55 SW18G26   29.91R
$$

WAZ036>038-301000-
NORTHEAST WASHINGTON

CITY           SKY/WX    TMP DP  RH WIND       PRES   REMARKS
SPOKANE GEIGER CLOUDY    56  51  84 SW18      29.78R
SPOKANE FELTS  LGT RAIN  59  50  72 SW14      29.78R
FAIRCHILD AFB  LGT RAIN  54  50  86 S17       29.78S
COEURDALENE,ID CLOUDY    59  48  67 SW14G20   29.78R
DEER PARK      LGT RAIN  58  48  69 S10       29.76R
$$

WAZ029>033-301000-
SOUTHEAST WASHINGTON

CITY           SKY/WX    TMP DP  RH WIND       PRES   REMARKS
PULLMAN        LGT RAIN  53  51  93 SW20      29.87S FOG
LEWISTON, ID   LGT RAIN  58  56  93 CALM      29.85R
WALLA WALLA    CLOUDY    59  48  67 SW13      29.92R
PENDLETON, OR  MOCLDY    57  42  57 W25G35    29.91R
$$



USA.gov is the U.S. government's official web portal to all federal, state and local government web resources and services.